User: anonymous
Location: Unspecified
(0.0000°N, 0.0000°E)
Time: 04:00:41
(UTC+02:00)
Language:

CZ-4 R/B - Orbit

View from above orbital plane
View from above orbital plane
View from above satellite
View from above satellite

Ground track
Ground track

The orbit data is extracted from the following two-line orbital elements,

1 28059U 03049C   14257.44866672  .00000192  00000-0  58753-4 0  1516
2 28059 098.6892 099.2598 0051525 072.4234 348.8143 14.52152136577549
Epoch (UTC): 14 September 2014 10:46:04
Eccentricity: 0.0051525
inclination: 98.6892°
perigee height: 682 km
apogee height: 755 km
right ascension of ascending node: 99.2598°
argument of perigee: 72.4234°
revolutions per day: 14.52152136
mean anomaly at epoch: 348.8143°
orbit number at epoch: 57754

The dashed part of the orbit path shows where the satellite is in the earth's shadow,  

DLR